QPF
0.00 0.00 0.00 0.00 0.00 0.00 0.00 0.00 0.00 0.00 0.00 0.00 0.00 0.01 0.01 0.01 0.01 0.01 0.01 0.02 0.03 0.03 0.03 0.03 0.03 0.02 0.02 0.03 0.04 0.05 0.05 0.04 0.04 0.03 0.01 0.01 0.01 0.01 0.01 0.02 0.03 0.02 0.02
0.00 0.00 0.00 0.00 0.00 0.00 0.00 0.00 0.00 0.00 0.00 0.00 0.00 0.01 0.01 0.01 0.01 0.01 0.01 0.02 0.02 0.03 0.03 0.03 0.03 0.03 0.02 0.03 0.05 0.05 0.05 0.06 0.05 0.03 0.02 0.01 0.01 0.01 0.01 0.02 0.03 0.03 0.03
0.00 0.00 0.00 0.00 0.00 0.00 0.01 0.01 0.00 0.00 0.00 0.00 0.00 0.00 0.01 0.01 0.01 0.01 0.01 0.02 0.03 0.02 0.02 0.02 0.03 0.03 0.03 0.03 0.04 0.05 0.04 0.05 0.06 0.05 0.04 0.03 0.02 0.01 0.01 0.01 0.01 0.02 0.02
0.00 0.00 0.00 0.00 0.00 0.00 0.01 0.01 0.01 0.01 0.01 0.01 0.01 0.01 0.01 0.01 0.01 0.01 0.02 0.02 0.02 0.02 0.01 0.01 0.02 0.03 0.03 0.04 0.05 0.04 0.03 0.03 0.04 0.05 0.06 0.05 0.03 0.02 0.02 0.02 0.02 0.02 0.02
0.00 0.00 0.00 0.00 0.00 0.00 0.01 0.01 0.01 0.02 0.01 0.01 0.01 0.01 0.01 0.01 0.01 0.03 0.03 0.02 0.02 0.02 0.01 0.02 0.03 0.03 0.03 0.04 0.05 0.05 0.04 0.04 0.04 0.04 0.05 0.08 0.09 0.06 0.03 0.02 0.03 0.03 0.02
0.00 0.00 0.00 0.00 0.00 0.01 0.01 0.02 0.02 0.03 0.03 0.03 0.02 0.01 0.02 0.02 0.02 0.02 0.02 0.03 0.05 0.04 0.02 0.02 0.03 0.04 0.03 0.03 0.03 0.04 0.05 0.05 0.05 0.04 0.04 0.05 0.05 0.03 0.03 0.02 0.01 0.03 0.03
0.00 0.01 0.01 0.01 0.01 0.02 0.06 0.09 0.07 0.04 0.06 0.07 0.06 0.05 0.03 0.02 0.02 0.02 0.03 0.05 0.07 0.04 0.01 0.03 0.03 0.05 0.04 0.05 0.05 0.05 0.05 0.04 0.03 0.03 0.03 0.02 0.02 0.02 0.03 0.02 0.02 0.03 0.02
0.02 0.02 0.03 0.02 0.01 0.02 0.05 0.06 0.05 0.06 0.13 0.17 0.11 0.07 0.02 0.02 0.02 0.02 0.02 0.04 0.05 0.04 0.02 0.02 0.03 0.05 0.06 0.06 0.06 0.05 0.05 0.04 0.03 0.02 0.03 0.03 0.03 0.03 0.03 0.03 0.02 0.02 0.01
0.02 0.03 0.02 0.02 0.02 0.03 0.03 0.03 0.04 0.08 0.13 0.20 0.15 0.04 0.02 0.02 0.02 0.01 0.02 0.03 0.03 0.04 0.03 0.03 0.03 0.04 0.05 0.05 0.05 0.04 0.05 0.05 0.04 0.04 0.04 0.04 0.03 0.03 0.03 0.04 0.03 0.02 0.01
0.01 0.02 0.02 0.03 0.02 0.02 0.02 0.03 0.07 0.07 0.05 0.10 0.12 0.05 0.04 0.04 0.03 0.02 0.02 0.02 0.02 0.03 0.04 0.03 0.03 0.03 0.03 0.03 0.04 0.04 0.04 0.05 0.04 0.05 0.05 0.04 0.03 0.03 0.03 0.02 0.03 0.03 0.02
0.01 0.01 0.01 0.01 0.01 0.02 0.03 0.07 0.10 0.10 0.05 0.07 0.06 0.06 0.07 0.05 0.03 0.03 0.03 0.03 0.03 0.03 0.04 0.04 0.04 0.04 0.03 0.04 0.05 0.04 0.06 0.06 0.06 0.06 0.05 0.04 0.04 0.04 0.03 0.02 0.03 0.03 0.03
0.01 0.01 0.01 0.01 0.01 0.01 0.02 0.05 0.08 0.07 0.06 0.04 0.05 0.05 0.05 0.03 0.01 0.01 0.01 0.02 0.03 0.04 0.04 0.05 0.06 0.05 0.03 0.03 0.04 0.04 0.06 0.07 0.07 0.08 0.07 0.06 0.05 0.04 0.04 0.03 0.02 0.02 0.03
0.04 0.02 0.02 0.02 0.03 0.04 0.04 0.04 0.04 0.04 0.05 0.04 0.05 0.07 0.05 0.02 0.01 0.00 0.01 0.01 0.01 0.02 0.04 0.06 0.04 0.03 0.02 0.03 0.03 0.04 0.04 0.05 0.06 0.06 0.06 0.06 0.05 0.04 0.04 0.04 0.03 0.03 0.03
0.03 0.03 0.03 0.03 0.03 0.05 0.05 0.05 0.05 0.05 0.06 0.07 0.10 0.12 0.10 0.06 0.03 0.01 0.01 0.01 0.02 0.02 0.02 0.01 0.01 0.02 0.02 0.02 0.03 0.04 0.04 0.04 0.04 0.05 0.05 0.05 0.04 0.03 0.04 0.03 0.05 0.05 0.04
0.02 0.02 0.03 0.04 0.03 0.03 0.04 0.04 0.05 0.07 0.09 0.10 0.11 0.11 0.11 0.10 0.07 0.03 0.01 0.01 0.02 0.02 0.02 0.01 0.01 0.01 0.02 0.02 0.03 0.03 0.04 0.04 0.04 0.04 0.05 0.04 0.05 0.05 0.05 0.04 0.05 0.06 0.06
0.01 0.01 0.02 0.04 0.05 0.05 0.05 0.06 0.07 0.10 0.11 0.09 0.08 0.09 0.10 0.10 0.07 0.04 0.02 0.02 0.02 0.02 0.02 0.01 0.01 0.02 0.03 0.05 0.05 0.04 0.04 0.05 0.05 0.04 0.04 0.05 0.06 0.05 0.06 0.06 0.05 0.06 0.05
0.01 0.01 0.02 0.04 0.05 0.08 0.11 0.12 0.11 0.11 0.10 0.09 0.08 0.08 0.07 0.06 0.04 0.04 0.03 0.02 0.03 0.03 0.03 0.03 0.03 0.04 0.04 0.05 0.06 0.05 0.04 0.03 0.04 0.03 0.03 0.04 0.04 0.04 0.04 0.04 0.05 0.04 0.04
0.02 0.02 0.03 0.05 0.06 0.08 0.10 0.11 0.10 0.09 0.07 0.06 0.06 0.07 0.05 0.04 0.04 0.05 0.04 0.03 0.05 0.06 0.05 0.05 0.05 0.05 0.06 0.06 0.05 0.05 0.04 0.04 0.03 0.03 0.03 0.03 0.03 0.03 0.03 0.03 0.04 0.04 0.05
0.04 0.04 0.04 0.05 0.07 0.07 0.08 0.06 0.04 0.03 0.03 0.03 0.04 0.05 0.05 0.06 0.06 0.07 0.07 0.08 0.08 0.08 0.08 0.08 0.07 0.06 0.06 0.06 0.05 0.04 0.04 0.05 0.04 0.04 0.05 0.05 0.05 0.05 0.05 0.04 0.05 0.06 0.06
0.04 0.03 0.03 0.04 0.04 0.04 0.04 0.03 0.02 0.02 0.03 0.03 0.04 0.06 0.08 0.10 0.08 0.08 0.10 0.12 0.13 0.14 0.13 0.09 0.07 0.06 0.05 0.05 0.05 0.05 0.04 0.04 0.05 0.06 0.06 0.06 0.05 0.05 0.04 0.04 0.04 0.05 0.05
0.02 0.02 0.02 0.02 0.01 0.01 0.01 0.01 0.02 0.03 0.05 0.07 0.06 0.07 0.08 0.09 0.08 0.07 0.08 0.09 0.10 0.10 0.08 0.06 0.05 0.05 0.05 0.05 0.05 0.06 0.06 0.05 0.05 0.05 0.06 0.05 0.06 0.06 0.05 0.03 0.03 0.03 0.03
0.02 0.02 0.01 0.02 0.01 0.01 0.01 0.01 0.02 0.03 0.03 0.05 0.07 0.06 0.06 0.06 0.07 0.08 0.09 0.09 0.09 0.08 0.07 0.06 0.05 0.05 0.05 0.05 0.05 0.06 0.08 0.08 0.06 0.07 0.08 0.08 0.08 0.08 0.07 0.04 0.03 0.03 0.02
0.02 0.02 0.01 0.01 0.01 0.01 0.01 0.02 0.02 0.02 0.02 0.02 0.03 0.04 0.03 0.03 0.02 0.03 0.05 0.04 0.04 0.05 0.05 0.05 0.04 0.04 0.04 0.05 0.06 0.07 0.08 0.08 0.07 0.08 0.11 0.11 0.11 0.10 0.06 0.04 0.03 0.03 0.01
0.01 0.01 0.02 0.02 0.01 0.01 0.01 0.02 0.02 0.01 0.01 0.02 0.03 0.04 0.03 0.03 0.03 0.03 0.05 0.04 0.03 0.04 0.05 0.05 0.05 0.04 0.04 0.04 0.05 0.06 0.08 0.08 0.08 0.08 0.11 0.11 0.10 0.07 0.04 0.04 0.03 0.02 0.01
0.01 0.01 0.01 0.02 0.01 0.01 0.02 0.02 0.01 0.01 0.02 0.03 0.04 0.04 0.04 0.04 0.05 0.06 0.07 0.08 0.07 0.06 0.07 0.07 0.07 0.06 0.05 0.06 0.07 0.06 0.07 0.08 0.11 0.13 0.15 0.14 0.11 0.08 0.05 0.04 0.03 0.02 0.01
0.01 0.02 0.02 0.02 0.02 0.02 0.02 0.02 0.01 0.02 0.03 0.03 0.04 0.03 0.03 0.03 0.04 0.06 0.07 0.08 0.09 0.09 0.08 0.07 0.05 0.05 0.05 0.06 0.07 0.07 0.08 0.11 0.14 0.13 0.11 0.11 0.10 0.09 0.08 0.07 0.06 0.05 0.04
MSLP
1008.61 1008.84 1009.03 1009.17 1009.29 1009.40 1009.55 1009.75 1010.04 1010.39 1010.81 1011.27 1011.71 1012.11 1012.46 1012.72 1012.92 1013.07 1013.20 1013.35 1013.54 1013.78 1014.08 1014.43 1014.82 1015.23 1015.64 1016.03 1016.38 1016.70 1016.96 1017.15 1017.29 1017.35 1017.34 1017.25 1017.09 1016.88 1016.63 1016.39 1016.17 1015.99 1015.87
1008.42 1008.74 1008.99 1009.17 1009.29 1009.38 1009.48 1009.64 1009.90 1010.25 1010.70 1011.20 1011.72 1012.21 1012.62 1012.95 1013.17 1013.33 1013.45 1013.57 1013.73 1013.94 1014.22 1014.55 1014.93 1015.32 1015.70 1016.06 1016.38 1016.65 1016.87 1017.05 1017.19 1017.27 1017.29 1017.26 1017.15 1016.99 1016.78 1016.53 1016.28 1016.05 1015.85
1007.99 1008.41 1008.77 1009.04 1009.21 1009.32 1009.42 1009.56 1009.80 1010.15 1010.60 1011.14 1011.71 1012.27 1012.75 1013.13 1013.40 1013.58 1013.71 1013.82 1013.95 1014.14 1014.39 1014.69 1015.04 1015.39 1015.74 1016.05 1016.32 1016.55 1016.75 1016.91 1017.05 1017.17 1017.25 1017.28 1017.25 1017.15 1016.99 1016.76 1016.49 1016.21 1015.94
1007.29 1007.83 1008.33 1008.72 1009.00 1009.18 1009.31 1009.47 1009.69 1010.03 1010.48 1011.03 1011.63 1012.22 1012.76 1013.19 1013.51 1013.73 1013.88 1014.00 1014.13 1014.30 1014.53 1014.81 1015.12 1015.43 1015.73 1016.00 1016.22 1016.41 1016.58 1016.74 1016.90 1017.05 1017.19 1017.30 1017.36 1017.34 1017.23 1017.03 1016.77 1016.46 1016.13
1006.34 1007.00 1007.65 1008.20 1008.62 1008.91 1009.12 1009.31 1009.54 1009.86 1010.30 1010.83 1011.43 1012.03 1012.59 1013.07 1013.43 1013.69 1013.88 1014.03 1014.18 1014.36 1014.58 1014.85 1015.13 1015.41 1015.67 1015.89 1016.07 1016.23 1016.38 1016.53 1016.71 1016.91 1017.11 1017.30 1017.43 1017.49 1017.45 1017.30 1017.05 1016.73 1016.36
1005.21 1005.98 1006.78 1007.50 1008.08 1008.50 1008.81 1009.05 1009.30 1009.61 1010.02 1010.52 1011.09 1011.68 1012.24 1012.73 1013.13 1013.43 1013.67 1013.86 1014.04 1014.25 1014.49 1014.75 1015.03 1015.29 1015.52 1015.71 1015.86 1015.99 1016.12 1016.27 1016.46 1016.70 1016.95 1017.21 1017.42 1017.56 1017.59 1017.49 1017.28 1016.97 1016.59
1003.99 1004.85 1005.78 1006.65 1007.39 1007.96 1008.37 1008.68 1008.96 1009.27 1009.64 1010.10 1010.63 1011.18 1011.73 1012.22 1012.63 1012.97 1013.25 1013.48 1013.71 1013.96 1014.23 1014.51 1014.79 1015.05 1015.27 1015.44 1015.57 1015.67 1015.79 1015.94 1016.14 1016.39 1016.69 1017.00 1017.27 1017.48 1017.58 1017.55 1017.38 1017.10 1016.74
1002.79 1003.71 1004.73 1005.73 1006.60 1007.30 1007.82 1008.20 1008.52 1008.84 1009.20 1009.62 1010.10 1010.61 1011.12 1011.60 1012.01 1012.37 1012.67 1012.95 1013.23 1013.51 1013.82 1014.13 1014.43 1014.70 1014.91 1015.08 1015.20 1015.29 1015.39 1015.52 1015.71 1015.98 1016.29 1016.63 1016.96 1017.22 1017.38 1017.41 1017.31 1017.08 1016.76
1001.73 1002.65 1003.72 1004.79 1005.76 1006.55 1007.17 1007.63 1008.00 1008.35 1008.71 1009.11 1009.56 1010.03 1010.51 1010.96 1011.36 1011.72 1012.04 1012.35 1012.65 1012.97 1013.31 1013.65 1013.98 1014.27 1014.49 1014.66 1014.77 1014.84 1014.92 1015.03 1015.21 1015.45 1015.76 1016.11 1016.46 1016.76 1016.97 1017.06 1017.02 1016.86 1016.59
1000.91 1001.79 1002.85 1003.92 1004.92 1005.76 1006.44 1006.98 1007.41 1007.80 1008.19 1008.60 1009.05 1009.50 1009.95 1010.38 1010.76 1011.11 1011.43 1011.75 1012.07 1012.42 1012.78 1013.15 1013.50 1013.81 1014.05 1014.21 1014.31 1014.38 1014.43 1014.50 1014.64 1014.85 1015.13 1015.46 1015.80 1016.11 1016.36 1016.50 1016.52 1016.42 1016.23
1000.42 1001.21 1002.17 1003.17 1004.12 1004.96 1005.66 1006.24 1006.74 1007.19 1007.64 1008.10 1008.57 1009.03 1009.48 1009.89 1010.26 1010.59 1010.90 1011.21 1011.54 1011.90 1012.28 1012.67 1013.04 1013.37 1013.62 1013.79 1013.88 1013.92 1013.94 1013.97 1014.05 1014.21 1014.43 1014.72 1015.03 1015.34 1015.59 1015.76 1015.83 1015.80 1015.67
1000.30 1000.93 1001.73 1002.58 1003.40 1004.16 1004.83 1005.43 1005.98 1006.51 1007.03 1007.56 1008.08 1008.58 1009.05 1009.46 1009.82 1010.14 1010.43 1010.74 1011.07 1011.43 1011.83 1012.23 1012.62 1012.96 1013.22 1013.40 1013.48 1013.50 1013.47 1013.46 1013.48 1013.57 1013.73 1013.95 1014.22 1014.49 1014.73 1014.91 1015.01 1015.03 1014.95
1000.54 1000.97 1001.52 1002.15 1002.78 1003.39 1003.98 1004.55 1005.13 1005.71 1006.32 1006.93 1007.52 1008.08 1008.58 1009.01 1009.37 1009.68 1009.98 1010.27 1010.60 1010.97 1011.38 1011.80 1012.21 1012.57 1012.84 1013.02 1013.10 1013.09 1013.04 1012.98 1012.94 1012.96 1013.05 1013.21 1013.41 1013.64 1013.85 1014.02 1014.13 1014.16 1014.13
1001.10 1001.28 1001.55 1001.88 1002.25 1002.66 1003.11 1003.62 1004.19 1004.81 1005.48 1006.16 1006.83 1007.45 1007.99 1008.44 1008.82 1009.14 1009.43 1009.74 1010.07 1010.46 1010.88 1011.33 1011.76 1012.14 1012.43 1012.61 1012.69 1012.68 1012.60 1012.50 1012.42 1012.38 1012.41 1012.50 1012.65 1012.82 1012.99 1013.13 1013.23 1013.27 1013.25
1001.92 1001.82 1001.77 1001.78 1001.85 1002.02 1002.29 1002.69 1003.21 1003.83 1004.54 1005.27 1005.98 1006.64 1007.22 1007.70 1008.10 1008.43 1008.74 1009.06 1009.42 1009.82 1010.28 1010.75 1011.21 1011.61 1011.92 1012.13 1012.21 1012.20 1012.11 1011.99 1011.88 1011.81 1011.80 1011.84 1011.94 1012.07 1012.20 1012.31 1012.38 1012.40 1012.38
1002.89 1002.51 1002.14 1001.83 1001.60 1001.51 1001.59 1001.84 1002.28 1002.87 1003.56 1004.30 1005.03 1005.70 1006.29 1006.78 1007.19 1007.54 1007.87 1008.21 1008.60 1009.04 1009.53 1010.03 1010.52 1010.95 1011.29 1011.52 1011.62 1011.62 1011.54 1011.43 1011.32 1011.23 1011.20 1011.23 1011.30 1011.40 1011.49 1011.57 1011.61 1011.60 1011.56
1003.89 1003.27 1002.63 1002.03 1001.54 1001.21 1001.09 1001.20 1001.52 1002.03 1002.67 1003.36 1004.07 1004.72 1005.29 1005.77 1006.17 1006.53 1006.87 1007.24 1007.66 1008.14 1008.66 1009.21 1009.73 1010.18 1010.55 1010.79 1010.92 1010.94 1010.89 1010.80 1010.71 1010.65 1010.63 1010.66 1010.73 1010.81 1010.89 1010.94 1010.95 1010.91 1010.83
1004.83 1004.03 1003.19 1002.38 1001.69 1001.18 1000.90 1000.87 1001.07 1001.48 1002.02 1002.63 1003.26 1003.85 1004.37 1004.81 1005.19 1005.54 1005.89 1006.28 1006.73 1007.24 1007.79 1008.35 1008.89 1009.37 1009.74 1010.01 1010.16 1010.21 1010.19 1010.14 1010.09 1010.07 1010.09 1010.15 1010.23 1010.32 1010.39 1010.42 1010.40 1010.33 1010.21
1005.63 1004.74 1003.79 1002.87 1002.07 1001.46 1001.07 1000.93 1001.03 1001.32 1001.75 1002.25 1002.77 1003.26 1003.70 1004.08 1004.42 1004.75 1005.10 1005.50 1005.96 1006.48 1007.04 1007.62 1008.16 1008.63 1009.01 1009.27 1009.44 1009.51 1009.53 1009.52 1009.52 1009.55 1009.62 1009.71 1009.83 1009.93 1010.01 1010.03 1009.98 1009.88 1009.72
1006.26 1005.36 1004.41 1003.49 1002.68 1002.04 1001.61 1001.41 1001.42 1001.62 1001.93 1002.31 1002.71 1003.08 1003.42 1003.72 1004.01 1004.30 1004.64 1005.03 1005.49 1006.01 1006.57 1007.12 1007.65 1008.10 1008.46 1008.72 1008.88 1008.96 1009.01 1009.04 1009.08 1009.16 1009.27 1009.41 1009.55 1009.67 1009.74 1009.74 1009.68 1009.54 1009.35
1006.70 1005.88 1005.02 1004.19 1003.46 1002.87 1002.46 1002.25 1002.22 1002.34 1002.55 1002.81 1003.09 1003.35 1003.59 1003.82 1004.05 1004.30 1004.61 1004.99 1005.43 1005.93 1006.46 1006.98 1007.47 1007.88 1008.20 1008.43 1008.58 1008.67 1008.72 1008.78 1008.85 1008.96 1009.10 1009.26 1009.41 1009.53 1009.59 1009.57 1009.48 1009.31 1009.09
1006.99 1006.31 1005.61 1004.94 1004.34 1003.87 1003.54 1003.36 1003.32 1003.38 1003.52 1003.68 1003.86 1004.03 1004.19 1004.34 1004.52 1004.74 1005.02 1005.37 1005.79 1006.26 1006.74 1007.22 1007.65 1008.01 1008.28 1008.48 1008.60 1008.67 1008.73 1008.79 1008.88 1009.00 1009.15 1009.30 1009.44 1009.53 1009.56 1009.51 1009.37 1009.17 1008.91
1007.18 1006.68 1006.17 1005.68 1005.26 1004.92 1004.70 1004.58 1004.55 1004.59 1004.68 1004.78 1004.88 1004.98 1005.08 1005.19 1005.33 1005.52 1005.78 1006.11 1006.50 1006.92 1007.36 1007.78 1008.15 1008.45 1008.67 1008.83 1008.92 1008.98 1009.02 1009.08 1009.16 1009.27 1009.40 1009.53 1009.63 1009.67 1009.65 1009.55 1009.36 1009.11 1008.82
1007.34 1007.02 1006.69 1006.39 1006.13 1005.94 1005.82 1005.77 1005.77 1005.81 1005.87 1005.93 1005.99 1006.04 1006.11 1006.19 1006.32 1006.50 1006.75 1007.05 1007.40 1007.79 1008.17 1008.53 1008.85 1009.09 1009.27 1009.39 1009.46 1009.50 1009.54 1009.59 1009.65 1009.74 1009.83 1009.91 1009.95 1009.94 1009.85 1009.68 1009.44 1009.14 1008.81
1007.55 1007.37 1007.19 1007.05 1006.93 1006.86 1006.82 1006.82 1006.85 1006.89 1006.94 1006.98 1007.02 1007.06 1007.12 1007.20 1007.33 1007.51 1007.74 1008.03 1008.35 1008.70 1009.04 1009.35 1009.61 1009.82 1009.96 1010.05 1010.11 1010.15 1010.18 1010.21 1010.26 1010.32 1010.37 1010.40 1010.38 1010.30 1010.15 1009.91 1009.62 1009.27 1008.90
1007.86 1007.78 1007.71 1007.66 1007.64 1007.64 1007.66 1007.69 1007.73 1007.77 1007.81 1007.85 1007.88 1007.93 1007.99 1008.08 1008.22 1008.41 1008.64 1008.91 1009.21 1009.52 1009.81 1010.08 1010.31 1010.48 1010.61 1010.69 1010.75 1010.79 1010.82 1010.86 1010.90 1010.93 1010.95 1010.93 1010.86 1010.73 1010.52 1010.24 1009.90 1009.51 1009.11
Thickness
5811 5809 5807 5804 5799 5794 5789 5786 5782 5779 5775 5770 5766 5762 5760 5760 5759 5758 5757 5756 5754 5752 5750 5749 5748 5746 5745 5744 5743 5742 5740 5740 5741 5739 5738 5742 5745 5746 5746 5747 5747 5747 5746
5809 5809 5808 5805 5802 5798 5793 5789 5785 5782 5778 5775 5772 5768 5765 5763 5762 5761 5759 5758 5756 5754 5753 5751 5749 5748 5746 5744 5743 5742 5739 5739 5739 5736 5733 5731 5736 5742 5745 5745 5745 5745 5745
5813 5812 5809 5808 5805 5801 5798 5795 5789 5786 5782 5779 5774 5770 5766 5764 5762 5761 5760 5760 5758 5757 5755 5754 5751 5749 5747 5745 5744 5742 5739 5737 5737 5737 5733 5727 5726 5732 5739 5741 5742 5743 5743
5820 5817 5814 5810 5808 5806 5803 5799 5794 5790 5786 5782 5776 5771 5766 5763 5764 5763 5763 5762 5761 5759 5758 5756 5754 5752 5750 5747 5745 5744 5742 5739 5736 5735 5735 5734 5732 5728 5728 5735 5738 5740 5740
5824 5821 5819 5817 5814 5811 5806 5801 5796 5791 5787 5784 5780 5775 5771 5769 5767 5766 5763 5762 5762 5761 5759 5757 5755 5753 5751 5749 5747 5745 5743 5741 5738 5736 5735 5733 5731 5730 5726 5725 5730 5734 5737
5828 5825 5823 5819 5815 5812 5807 5802 5796 5791 5788 5785 5782 5778 5774 5771 5768 5766 5763 5762 5762 5761 5760 5759 5757 5755 5753 5750 5748 5746 5744 5742 5740 5738 5736 5734 5731 5729 5727 5724 5725 5727 5731
5828 5824 5820 5816 5813 5811 5807 5803 5797 5792 5790 5786 5784 5781 5778 5774 5771 5768 5765 5763 5761 5761 5760 5759 5757 5756 5754 5752 5750 5747 5745 5743 5741 5739 5737 5736 5734 5732 5729 5726 5724 5723 5726
5827 5825 5822 5818 5815 5813 5809 5805 5800 5795 5792 5788 5785 5783 5780 5777 5774 5771 5768 5765 5763 5762 5761 5759 5758 5756 5754 5752 5750 5748 5746 5744 5741 5740 5738 5736 5734 5732 5730 5727 5723 5720 5721
5826 5825 5824 5821 5818 5814 5811 5807 5803 5798 5794 5791 5787 5783 5781 5778 5776 5773 5770 5767 5765 5763 5762 5759 5757 5756 5754 5752 5750 5747 5746 5744 5741 5739 5737 5734 5733 5731 5729 5728 5725 5720 5716
5822 5823 5822 5820 5817 5815 5812 5808 5803 5798 5794 5791 5787 5784 5781 5779 5777 5773 5770 5767 5766 5764 5762 5759 5757 5756 5755 5753 5750 5747 5745 5742 5740 5738 5735 5733 5732 5730 5728 5727 5725 5722 5718
5817 5819 5820 5819 5816 5813 5810 5805 5801 5796 5791 5789 5786 5783 5780 5778 5775 5772 5770 5767 5765 5762 5761 5759 5757 5756 5754 5752 5749 5747 5744 5741 5739 5737 5734 5732 5731 5729 5727 5726 5724 5721 5718
5812 5814 5814 5813 5811 5808 5806 5802 5798 5794 5791 5788 5785 5781 5778 5775 5772 5770 5769 5767 5764 5762 5760 5759 5756 5754 5753 5751 5748 5745 5743 5740 5737 5735 5732 5731 5729 5726 5724 5723 5721 5719 5717
5804 5806 5807 5806 5805 5802 5800 5798 5795 5791 5789 5786 5781 5776 5773 5770 5769 5767 5766 5765 5763 5761 5759 5757 5754 5752 5751 5749 5747 5744 5742 5739 5737 5734 5731 5729 5726 5723 5721 5719 5717 5716 5714
5795 5796 5797 5798 5799 5797 5794 5791 5789 5786 5784 5781 5776 5772 5768 5765 5764 5764 5763 5763 5761 5758 5757 5755 5753 5750 5748 5746 5744 5742 5740 5737 5735 5732 5730 5727 5724 5722 5719 5716 5714 5712 5709
5785 5786 5786 5787 5788 5787 5785 5783 5781 5778 5776 5773 5770 5768 5765 5762 5759 5758 5759 5759 5757 5755 5753 5751 5749 5747 5745 5743 5741 5738 5736 5733 5730 5728 5726 5725 5722 5720 5717 5714 5710 5707 5704
5774 5776 5777 5778 5778 5778 5776 5774 5773 5771 5769 5766 5765 5763 5760 5758 5754 5753 5753 5753 5752 5750 5749 5747 5744 5742 5741 5739 5737 5734 5732 5729 5726 5724 5722 5721 5718 5716 5713 5711 5708 5705 5701
5763 5766 5768 5769 5770 5770 5768 5766 5765 5763 5760 5757 5757 5755 5753 5751 5750 5749 5747 5746 5746 5745 5743 5742 5739 5737 5737 5736 5732 5730 5728 5725 5722 5720 5718 5715 5714 5711 5709 5706 5703 5700 5698
5754 5757 5760 5761 5762 5763 5762 5761 5758 5755 5753 5751 5749 5748 5746 5745 5744 5742 5741 5740 5740 5738 5737 5736 5734 5732 5732 5731 5728 5725 5723 5720 5718 5716 5714 5711 5709 5707 5704 5702 5698 5694 5692
5746 5749 5753 5755 5754 5754 5754 5751 5749 5748 5746 5744 5742 5742 5741 5738 5737 5735 5733 5733 5732 5730 5730 5729 5728 5727 5726 5724 5722 5719 5716 5714 5712 5711 5709 5706 5704 5702 5698 5695 5691 5688 5686
5738 5741 5743 5744 5742 5744 5744 5741 5739 5738 5736 5736 5736 5735 5734 5731 5729 5727 5726 5725 5724 5722 5721 5720 5721 5721 5720 5718 5714 5711 5710 5707 5705 5703 5702 5700 5698 5695 5691 5688 5685 5682 5680
5728 5731 5732 5731 5731 5733 5732 5730 5729 5728 5729 5729 5727 5726 5724 5723 5721 5720 5719 5717 5715 5714 5712 5711 5712 5711 5711 5709 5706 5703 5702 5700 5698 5696 5695 5693 5690 5687 5684 5682 5680 5678 5675
5717 5719 5720 5720 5722 5723 5722 5719 5718 5720 5720 5719 5717 5716 5715 5713 5713 5711 5710 5708 5706 5704 5702 5702 5702 5702 5701 5700 5698 5696 5693 5692 5691 5690 5689 5686 5682 5679 5676 5674 5672 5669 5665
5706 5709 5710 5711 5711 5712 5711 5709 5710 5710 5709 5707 5705 5704 5704 5702 5701 5700 5698 5696 5694 5693 5692 5691 5691 5692 5691 5691 5689 5687 5685 5683 5682 5682 5681 5677 5673 5669 5666 5664 5662 5659 5657
5698 5699 5699 5698 5699 5700 5700 5699 5700 5699 5697 5695 5694 5693 5692 5691 5690 5688 5687 5685 5684 5683 5682 5682 5681 5681 5680 5679 5679 5678 5676 5673 5671 5670 5669 5666 5662 5659 5657 5655 5652 5651 5649
5687 5689 5688 5688 5689 5689 5688 5688 5688 5687 5685 5683 5683 5681 5681 5680 5679 5677 5676 5676 5676 5674 5673 5674 5673 5671 5671 5671 5669 5667 5666 5664 5662 5659 5657 5655 5652 5650 5648 5646 5644 5642 5640
5678 5678 5678 5678 5678 5677 5677 5677 5678 5677 5675 5674 5672 5671 5670 5669 5668 5667 5666 5666 5665 5665 5665 5664 5664 5665 5663 5662 5660 5658 5657 5654 5651 5649 5647 5645 5644 5642 5641 5638 5635 5633 5631